Regional Weather Roundup
Issued by NWS

Home | Current Version | Previous Version | Text Only | Print | Product List | Glossary On
Versions: 1 2 3 4 5 6 7 8 9 10 11 12 13 14 15 16 17 18 19 20 21 22 23 24 25 26 27 28 29 30 31 32 33 34 35 36 37 38 39 40 41 42 43 44 45 46 47 48 49 50
000
ASHW40 PHFO 091612
RWRHI

WEATHER ROUNDUP FOR HAWAII
NATIONAL WEATHER SERVICE HONOLULU HI
600 AM HST TUE FEB 09 2016

THIS IS AN AUTOMATED REPORT THAT HAS NOT BEEN QUALITY CONTROLLED.

NOTE..."FAIR" INDICATES FEW OR NO CLOUDS BELOW 12,000 FEET WITH NO
SIGNIFICANT WEATHER AND/OR OBSTRUCTIONS TO VISIBILITY.

* - THESE SITES REPORT LIMITED FIELDS

HIZ001>004-091700-
KAUAI-NIIHAU-

CITY           SKY/WX    TMP DP  RH WIND       PRES   REMARKS
LIHUE APT      CLEAR     58  52  80 W9        30.04R
PORT ALLEN*      N/A     61 N/A N/A NE9         N/A
POIPU*           N/A     54 N/A N/A N3          N/A
PRINCEVILLE*     N/A     59 N/A N/A S3          N/A
KOKOLE POINT*  NOT AVBL
MOLOAA DAIRY*    N/A     61  55  82 W1          N/A
WAIMEA HTS*    NOT AVBL
PUU OPAE*      NOT AVBL
PUU LUA*       NOT AVBL
MAKAHA RIDGE*  NOT AVBL
$$

HIZ005>011-091700-
OAHU-

CITY           SKY/WX    TMP DP  RH WIND       PRES   REMARKS
HONOLULU       CLEAR     62  56  80 NW3       30.04R
KALAELOA       CLEAR     58  52  80 NE3       30.05R
KANEOHE MCB    PTCLDY    63  58  83 CALM      30.01R
WHEELER FIELD  FAIR      56  53  91 NE1       30.03R
BELLOWS*       NOT AVBL
KAHUKU*        NOT AVBL
WHEELER*       NOT AVBL
WAIANAE HARBOR NOT AVBL
DILLINGHAM*      N/A     54  43  66 MISG        N/A
KAHUKU TRN*      N/A     59  52  77 S3          N/A
KAWAILOA*        N/A     61  52  72 E3          N/A
KII*             N/A     59  55  88 S3          N/A
MAKUA RANGE*     N/A     75  66  73 E6          N/A
OAHU FOREST NW NOT AVBL
SCHOFIELD BRK*   N/A     52  50  93 MISG        N/A
SCHOFIELD S*   NOT AVBL
WAIANAE VLY*   NOT AVBL
KUAOKALA*      NOT AVBL
HONOULIUULI*   NOT AVBL
MOKUOLOE IS*   NOT AVBL
PALEHUA*       NOT AVBL
WAIAWA PHB*    NOT AVBL
$$

HIZ012>013-091700-
MOLOKAI-

CITY           SKY/WX    TMP DP  RH WIND       PRES   REMARKS
MOLOKAI AIRPT  CLEAR     62  55  77 NE5       30.04S
KALAUPAPA      NOT AVBL
MAKAPULAPAI*   NOT AVBL
MOLOKAI 1*     NOT AVBL
PUU ALII*      NOT AVBL
$$

HIZ016-091700-
KAHOOLAWE-

CITY           SKY/WX    TMP DP  RH WIND       PRES   REMARKS
KAHOOLAWE*     NOT AVBL
HAKIOAWA*      NOT AVBL
HONOKANAIA*      N/A     65  56  72 N5        29.97R
KANELOA*         N/A     64  57  77 VRB10G17  30.07R
KEALIALALO*    NOT AVBL
LUA MAKIKA*    NOT AVBL
$$

HIZ014>015-091700-
LANAI-

CITY           SKY/WX    TMP DP  RH WIND       PRES   REMARKS
LANAI CITY     FAIR      58  54  86 NE6       30.08R
LANAI 1*       NOT AVBL
$$

HIZ017>028-091700-
MAUI-

CITY           SKY/WX    TMP DP  RH WIND       PRES   REMARKS
KAHULUI        CLEAR     55  52  89 CALM      30.04R
KAPALUA-W MAUI CLEAR     63  54  72 E9        30.05
HANA AIRPORT   MOCLDY    57  32  38 S5        30.07R
HANA*            N/A     61 N/A N/A S3          N/A
HALEAKALA SUMM   N/A     43  10  26 W10         N/A
MAALAEA BAY*   NOT AVBL
HALEAKALA*     NOT AVBL
KAUPO GAP*     NOT AVBL
KULA 1*          N/A    N/A N/A N/A E3          N/A
$$

HIZ023>026-091700-
BIG ISLAND OF HAWAII COAST AND LOWER SLOPES-

CITY           SKY/WX    TMP DP  RH WIND       PRES   REMARKS
KAILUA KONA    NOT AVBL
HILO           CLEAR     61  50  67 SW9       30.05R
HONOKAA*         N/A     54 N/A N/A VRB1        N/A
KAWAIHAE MWT*    N/A     66 N/A N/A SE3         N/A
KAWAIHAE*      NOT AVBL
SOUTH POINT*     N/A     61 N/A N/A NW9         N/A
UPOLU AIRPORT*   N/A    N/A N/A N/A SE9         N/A
KAMUELA*       SUNNY     45  41  87 E8        30.11R
HAKALAU*         N/A    N/A N/A N/A W3          N/A
KALOKO-HONOKO* NOT AVBL
PALI 2*          N/A     52  46  82 N8          N/A
KEALAKOMO*       N/A     66  54  63 VRB9        N/A
KAUPULEHU*     NOT AVBL
KAPAPALA*        N/A     50  47  89 NW8         N/A
LOWER KAHUKU*  NOT AVBL
PUHE CS*       NOT AVBL
PUHO CS*       NOT AVBL
PTA KEAMUKU*     N/A     46  43  87 CALM        N/A
WAIKOLOA*      NOT AVBL
$$

HIZ027>028-091700-
BIG ISLAND OF HAWAII INTERIOR AND SUMMMITS-

CITY           SKY/WX    TMP DP  RH WIND       PRES   REMARKS
BRADSHAW FIELD CLOUDY    40   4  22 SE5       30.26R
MK VISITOR CEN   N/A     48  -8   9 N5          N/A
MAUNA KEA*       N/A     36 -20   8 NW22        N/A  WCI  24
MAUNA LOA*       N/A    N/A N/A N/A MISG        N/A
MAUNA LOA 1*   NOT AVBL
PTA KIPUKA*      N/A     39  14  35 E5          N/A
PTA RANGE 17*    N/A     68  41  37 E8          N/A
PTA WEST*        N/A     72  48  43 SE13        N/A
NENE CABIN*    NOT AVBL
AHUMOA*        NOT AVBL
PTA PORTABLE*  NOT AVBL
PUU MALI*        N/A     46  12  25 S7          N/A
$$

HIC003-091700-
NORTHWEST ISLANDS-

CITY           SKY/WX    TMP DP  RH WIND       PRES   REMARKS
MIDWAY ISLAND  LGT RAIN  59  57  94 N6        30.04S
MIDWAY NOS*    NOT AVBL
FRENCH FRIGATE NOT AVBL
$$

PHZ110>124-180-091700-
BUOY REPORTS

STATION/POSITION TIME  TEMP    WIND        PRES    WAVE   SWELL
                       AIR SEA DIR/SP/G            HT/PER HT/DIR
                 (UTC) (F)     (DEG/KT/KT) (MB)    (FT/S) (FT/D)
BUOY 51001       1500   72 75  300/ 12/ 16 1015.1R
BUOY 51101       1550   72 75  290/ 12/ 14 1015.3R  10/11   8/340
BUOY 51100       NOT AVBL
BUOY 51002       1550   75 77   70/ 14/ 17 1014.9R   9/14   8/340
BUOY 51003       1550   73 78   70/ 10/ 14 1016.0R  10/13  10/330
BUOY 51004       1550   75 77   50/ 12/ 16 1015.8R  11/12  11/330
BARBERS PT BUOY  NOT AVBL
WAIMEA BAY BUOY  1504      77                N/A     8/13   7/320
KAILUA BAY BUOY  1511      77                N/A     7/14   5
LANAI BUOY       NOT AVBL
BARBERS PT 2     1603      77                N/A     6/11   5/310
PAUWELA MAUI     1507      76                N/A    13/14  11/340
HILO             NOT AVBL
KANEOHE BAY BUOY 1506      76                N/A     8/13   7/360
HANALEI KAUAI    1601      76                N/A    10/13   8/320
KAHULUI HARBOR   NOT AVBL
HONOLULU HARBOR  1500   66 76   70/  2/  3 1017.2S
KILO NALU        NOT AVBL
HILO HARBOR      1500   63 76  200/  5/  7 1016.3R
MOKUOLOE         1500   65 76  230/  2/  3 1016.6R
NAWILIWILI       1500   58 77  280/  5/  7 1016.5S
WHOTS BUOY       NOT AVBL
BUOY 51028       NOT AVBL
$$

......................KEY........................................
  SKY/WX - SKY CONDITIONS/PRESENT WEATHER
  TMP    - TEMPERATURE IN FAHRENHEIT
  DWPT   - DEWPOINT IN FAHRENHEIT
  RH     - RELATIVE HUMIDITY IN PERCENT
  WIND   - DIRECTION AND SPEED /MPH FOR ISLANDS...KTS FOR BUOYS/
  PRES   - MEAN SEA LEVEL PRESSURE IN INCHES OF HG
  VSB    - VISIBILITY IN MILES
  HX     - HEAT INDEX
  WCI    - WIND CHILL INDEX
  VRB    - VARIABLE WIND DIRECTION
  N/A    - NOT AVAILABLE



USA.gov is the U.S. government's official web portal to all federal, state and local government web resources and services.